Regional Weather Roundup
Issued by NWS

Home | Current Version | Previous Version | Graphics & Text | Print | Product List | Glossary On
Versions: 1 2 3 4 5 6 7 8 9 10 11 12 13 14 15 16 17 18 19 20 21 22 23 24 25 26 27 28 29 30 31 32 33 34 35 36 37 38 39 40 41 42 43 44 45 46 47 48 49 50
000
ASUS43 KLSX 180759
RWRMO

WEATHER SUMMARY FOR MISSOURI
NATIONAL WEATHER SERVICE SPRINGFIELD MO
300 AM CDT THU SEP 18 2014

NOTE: "FAIR" INDICATES FEW OR NO CLOUDS BELOW 12,000 FEET WITH NO
       SIGNIFICANT WEATHER AND/OR OBSTRUCTIONS TO VISIBILITY.
       CURRENT SKY AND/OR WEATHER CONDITIONS ARE NOT AVAILABLE FOR
       CHILLICOTHE AND FARMINGTON.

MOZ001>031-035>038-043-044-053-054-180900-
...NORTHERN AND WESTERN MISSOURI...

CITY           SKY/WX    TMP DP  RH WIND       PRES   REMARKS
KANSAS CTY INT CLOUDY    62  61  96 E13       29.95F
KANSAS C DTWN  CLOUDY    64  62  93 E8        29.94F FOG
LEE`S SUMMIT   CLOUDY    63  61  93 E9        29.96F FOG
ST JOSEPH      MOCLDY    64  63  96 E7        29.96F
KIRKSVILLE     FOG       56  55  97 E5        30.01S VSB 1/4

$$
MOZ066>068-077>081-088>096-101>105-180900-
...SOUTHWEST MISSOURI...

CITY           SKY/WX    TMP DP  RH WIND       PRES   REMARKS
SPRINGFIELD    CLOUDY    64  62  93 S7        29.95R
JOPLIN         TSTM      64  59  83 W12       29.95F

$$
MOZ032>034-039>042-045>050-055>058-069>072-180900-
...CENTRAL MISSOURI...

CITY           SKY/WX    TMP DP  RH WIND       PRES   REMARKS
COLUMBIA         N/A    N/A N/A N/A MISG        N/A
JEFFERSON CITY CLOUDY    62  61  96 E7        29.97S FOG
ROLLA          FOG       60  59  96 E6        29.96S VSB 1/2
SEDALIA        FOG       63  61  93 E3        29.98R VSB 1/2
OSAGE BEACH    CLOUDY    64  61  88 CALM      29.96R

$$
MOZ051-052-059>065-180900-
...EAST CENTRAL MISSOURI...

CITY           SKY/WX    TMP DP  RH WIND       PRES   REMARKS
ST LOUIS INTL  CLOUDY    62  56  80 E8        29.99F
SPIRIT OF STL  CLOUDY    60  57  89 E6        29.96F
ST CHARLES     CLOUDY    60  57  89 E7        29.98F

$$
MOZ072>076-082>087-097>100-106>115-180900-
...SOUTH CENTRAL AND SOUTHEAST MISSOURI...

CITY           SKY/WX    TMP DP  RH WIND       PRES   REMARKS
CAPE GIRARDEAU FOG       55  54  96 CALM      29.97S VSB 1/4
FARMINGTON     CLOUDY    59  59 100 CALM      29.99F
POPLAR BLUFF   CLOUDY    62  58  86 NE3       29.95S FOG
WEST PLAINS    FOG       60  59  96 SE3       29.97S VSB 1/2

$$



USA.gov is the U.S. government's official web portal to all federal, state and local government web resources and services.